Location: Unspecified
(0.0000°N, 0.0000°E)
Time: 04:15:50
(UTC+00:00)

Vanguard 3 - All Passes

Search period start: 25 October 2014 00:00
Search period end: 04 November 2014 00:00
Orbit: 508 x 3278 km, 33.3° (Epoch: 24 October)

Date Brightness Start Highest point End Pass type
(mag) Time Alt. Az. Time Alt. Az. Time Alt. Az.
25 Oct - 06:04:41 10° NNW 06:07:59 24° NE 06:12:20 10° E daylight
25 Oct - 08:14:56 10° W 08:19:52 42° SSW 08:28:04 10° SE daylight
25 Oct - 10:30:18 10° SW 10:35:27 16° SSW 10:42:14 10° SSE daylight
25 Oct - 12:49:08 10° SSW 12:55:20 13° S 13:02:33 10° SSE daylight
25 Oct - 15:03:35 10° SSW 15:17:26 25° SSE 15:31:58 10° ESE daylight
25 Oct - 17:18:00 10° SW 17:37:26 54° SSE 17:52:58 10° ENE daylight
25 Oct - 19:35:17 10° WSW 19:54:31 70° NW 20:06:45 10° NE visible
25 Oct - 21:59:00 10° W 22:09:01 21° NW 22:16:08 10° N visible
26 Oct - 07:03:28 10° WNW 07:07:42 84° SW 07:14:30 10° SE daylight
26 Oct - 09:16:43 10° WSW 09:21:29 20° SSW 09:28:17 10° SSE daylight
26 Oct - 11:35:36 10° SSW 11:39:15 12° S 11:43:25 10° SSE daylight
26 Oct - 13:50:44 10° SSW 14:00:41 18° SSE 14:12:07 10° SE daylight
26 Oct - 16:04:09 10° SSW 16:21:34 39° SSE 16:37:58 10° E daylight
26 Oct - 18:19:35 10° SW 18:40:00 84° SE 18:54:32 10° ENE visible
26 Oct - 20:39:49 10° WSW 20:55:40 39° NW 21:05:58 10° NNE visible
27 Oct - 05:52:44 10° NNW 05:56:13 34° NE 06:00:49 10° ESE daylight
27 Oct - 08:04:02 10° W 08:08:24 28° SSW 08:15:02 10° SSE daylight
27 Oct - 10:21:18 10° SSW 10:24:13 12° S 10:27:36 10° S daylight
27 Oct - 12:38:37 10° S 12:44:05 13° SSE 12:50:22 10° SSE daylight
27 Oct - 14:51:04 10° SSW 15:05:21 28° SSE 15:20:50 10° ESE daylight
27 Oct - 17:04:59 10° SW 17:24:43 62° SE 17:41:11 10° ENE daylight
27 Oct - 19:22:29 10° WSW 19:41:46 61° NW 19:54:42 10° NE visible
27 Oct - 21:47:32 10° WNW 21:56:56 19° NW 22:03:55 10° N visible
28 Oct - 04:43:47 10° NNE 04:44:41 11° NE 04:45:37 10° NE visible
28 Oct - 06:52:08 10° WNW 06:56:06 54° SSW 07:02:06 10° SE daylight
28 Oct - 09:06:56 10° SW 09:10:12 14° SSW 09:14:16 10° SSE daylight
28 Oct - 13:38:45 10° SSW 13:49:00 19° SSE 14:01:05 10° ESE daylight
28 Oct - 15:51:20 10° SW 16:08:59 45° SSE 16:26:20 10° E daylight
28 Oct - 18:06:39 10° SW 18:27:07 86° NW 18:42:30 10° NE visible
28 Oct - 20:27:37 10° W 20:43:09 34° NW 20:53:49 10° NNE visible
29 Oct - 05:40:55 10° NW 05:44:31 53° NE 05:49:07 10° ESE daylight
29 Oct - 07:53:30 10° WSW 07:57:01 19° SSW 08:01:48 10° SSE daylight
29 Oct - 12:27:37 10° S 12:32:47 12° SSE 12:38:42 10° SE daylight
29 Oct - 14:38:31 10° SSW 14:53:04 31° SSE 15:09:27 10° E daylight
29 Oct - 16:52:05 10° SW 17:11:50 71° SE 17:29:11 10° ENE daylight
29 Oct - 19:09:52 10° WSW 19:28:57 54° NW 19:42:32 10° NE visible
29 Oct - 21:36:19 10° WNW 21:44:56 17° NW 21:51:38 10° N visible
30 Oct - 04:30:34 10° N 04:33:02 17° NE 04:35:34 10° ENE visible
30 Oct - 06:41:00 10° W 06:44:36 33° SSW 06:49:34 10° SE daylight
30 Oct - 13:26:35 10° SSW 13:37:10 21° SSE 13:49:59 10° ESE daylight
30 Oct - 15:38:35 10° SW 15:56:13 51° SE 16:14:28 10° ENE daylight
30 Oct - 17:53:54 10° WSW 18:14:08 77° NW 18:30:17 10° NE visible
30 Oct - 20:15:37 10° W 20:30:42 30° NW 20:41:36 10° NNE visible
31 Oct - 05:29:15 10° NW 05:32:53 89° NE 05:37:17 10° SE daylight
31 Oct - 07:43:47 10° SW 07:45:41 12° SSW 07:47:53 10° S daylight
31 Oct - 12:16:06 10° S 12:21:22 13° SSE 12:27:29 10° SE daylight
31 Oct - 14:25:59 10° SSW 14:40:37 35° SSE 14:57:50 10° E daylight
31 Oct - 16:39:20 10° SW 16:58:49 80° SE 17:17:00 10° ENE daylight
31 Oct - 18:57:28 10° WSW 19:16:09 47° NW 19:30:14 10° NNE visible
31 Oct - 21:25:17 10° WNW 21:33:04 15° NNW 21:39:21 10° N visible
01 Nov - 04:18:08 10° NNW 04:21:25 27° NE 04:24:38 10° E visible
01 Nov - 06:30:10 10° WSW 06:33:09 21° SSW 06:36:50 10° SSE daylight
01 Nov - 13:14:19 10° SSW 13:25:08 23° SSE 13:38:44 10° ESE daylight
01 Nov - 15:25:56 10° SW 15:43:19 58° SE 16:02:21 10° ENE daylight
01 Nov - 17:41:19 10° WSW 18:01:07 68° NW 18:17:56 10° NE visible
01 Nov - 20:03:51 10° W 20:18:21 27° NW 20:29:19 10° NNE visible
02 Nov - 03:08:14 10° N 03:09:26 11° NNE 03:10:34 10° NE visible
02 Nov - 05:17:45 10° WNW 05:21:19 52° SW 05:25:18 10° SE visible
02 Nov - 12:04:09 10° S 12:09:49 13° SSE 12:16:33 10° SE daylight
02 Nov - 14:13:31 10° SSW 14:28:00 40° SE 14:45:56 10° E daylight
02 Nov - 16:26:45 10° SW 16:45:44 89° SE 17:04:36 10° NE daylight
02 Nov - 18:45:17 10° W 19:03:23 41° NW 19:17:50 10° NNE visible
02 Nov - 21:14:23 10° NW 21:21:20 14° NNW 21:27:08 10° N visible
03 Nov - 04:05:57 10° NW 04:09:51 45° NE 04:13:22 10° ESE visible
03 Nov - 06:19:58 10° SW 06:21:41 12° SSW 06:23:35 10° S daylight
03 Nov - 13:02:01 10° SSW 13:12:57 26° SSE 13:27:15 10° E daylight
03 Nov - 15:13:25 10° SW 15:30:20 66° SE 15:50:01 10° ENE daylight
03 Nov - 17:28:56 10° WSW 17:48:07 60° NW 18:05:25 10° NE visible
03 Nov - 19:52:20 10° WNW 20:06:07 24° NNW 20:17:00 10° NNE visible
